Hutchinson, KS

11:28 PM CDT on October 19, 2019 (GMT -0500)
Hutchinson Municipal

Weather History for KHUT - July, 2019

Change the Weather History Date:

Saturday, July 20, 2019

  Actual Average Record
Temperature  
Mean Temperature 90 °F -  
Max Temperature 102 °F 90 °F 108 °F (2006)
Min Temperature 77 °F 66 °F 64 °F (1997)
Cooling Degree Days 24    
Growing Degree Days 40 (Base 50)    
Moisture  
Dew Point 66 °F    
Average Humidity 48    
Maximum Humidity 74    
Minimum Humidity 30    
Precipitation  
Precipitation 0.00 in - - ()
Sea Level Pressure  
Sea Level Pressure 29.72 in    
Wind  
Wind Speed 15 mph (South)    
Max Wind Speed 24 mph    
Max Gust Speed 33 mph    
Visibility 10 miles    
Events      
Averages and records for this station are not official NWS values.
T = Trace of Precipitation, MM = Missing Value Source: NWS Daily Summary

Daily Weather History Graph

Daily Weather History Graph

Search for Another Location

Airport or City:

Astronomy

Jul. 20, 2019 Rise Set
Actual Time 6:24 AM CDT 8:50 PM CDT
Civil Twilight 5:54 AM CDT 9:21 PM CDT
Nautical Twilight 5:16 AM CDT 9:58 PM CDT
Astronomical Twilight 4:35 AM CDT 10:39 PM CDT
Moon 11:21 PM CDT 9:47 AM CDT
Length of Visible Light 15h 27m
Length of Day
14h 26m
Waning Gibbous, 87% of the Moon is Illuminated
Jul 20
Waning Gibbous
Jul 24
Last Quarter
Jul 31
New
Aug 7
First Quarter
Aug 15
Full

Hourly Weather History & Observations

Time (CDT) Temp. Heat Index Dew Point Humidity Pressure Visibility Wind Dir Wind Speed Gust Speed Precip Events Conditions
12:52 AM 82.9 °F 85.4 °F 66.9 °F 58% 29.73 in 10.0 mi SSE 13.8 mph 23.0 mph N/A   Clear
1:52 AM 82.0 °F 84.1 °F 66.0 °F 58% 29.74 in 10.0 mi South 13.8 mph - N/A   Clear
2:52 AM 81.0 °F 83.0 °F 66.0 °F 60% 29.73 in 10.0 mi South 12.7 mph - N/A   Clear
3:52 AM 80.1 °F 82.1 °F 66.0 °F 62% 29.72 in 10.0 mi South 13.8 mph - N/A   Clear
4:52 AM 79.0 °F - 66.9 °F 66% 29.71 in 10.0 mi South 11.5 mph - N/A   Clear
5:52 AM 77.0 °F - 66.9 °F 71% 29.72 in 10.0 mi SSE 12.7 mph - N/A   Clear
6:52 AM 77.0 °F - 68.0 °F 74% 29.72 in 10.0 mi SSE 13.8 mph - N/A   Clear
7:52 AM 80.1 °F 82.7 °F 68.0 °F 67% 29.73 in 10.0 mi South 17.3 mph 23.0 mph N/A   Clear
8:52 AM 84.0 °F 87.0 °F 68.0 °F 58% 29.73 in 10.0 mi South 17.3 mph 28.8 mph N/A   Clear
9:52 AM 87.1 °F 90.6 °F 68.0 °F 53% 29.72 in 10.0 mi South 19.6 mph - N/A   Clear
10:52 AM 91.0 °F 93.8 °F 66.0 °F 44% 29.73 in 10.0 mi South 19.6 mph 28.8 mph N/A   Clear
11:52 AM 95.0 °F 97.9 °F 66.0 °F 38% 29.72 in 10.0 mi South 17.3 mph - N/A   Clear
12:52 PM 98.1 °F 102.4 °F 66.9 °F 36% 29.72 in 10.0 mi South 18.4 mph - N/A   Clear
1:52 PM 100.0 °F 105.6 °F 68.0 °F 35% 29.70 in 10.0 mi South 21.9 mph 29.9 mph N/A   Clear
2:52 PM 102.0 °F 107.3 °F 66.9 °F 32% 29.69 in 10.0 mi South 24.2 mph 29.9 mph N/A   Clear
3:52 PM 102.9 °F 107.6 °F 66.0 °F 30% 29.69 in 10.0 mi South 17.3 mph 33.4 mph N/A   Clear
4:52 PM 102.9 °F 107.6 °F 66.0 °F 30% 29.68 in 10.0 mi South 19.6 mph 33.4 mph N/A   Clear
5:52 PM 102.0 °F 105.9 °F 64.9 °F 30% 29.68 in 10.0 mi South 21.9 mph 28.8 mph N/A   Clear
6:52 PM 100.0 °F 103.0 °F 64.0 °F 31% 29.69 in 10.0 mi South 18.4 mph - N/A   Clear
7:52 PM 96.1 °F 97.3 °F 63.0 °F 33% 29.70 in 10.0 mi South 13.8 mph - N/A   Clear
8:52 PM 91.0 °F 91.5 °F 62.1 °F 38% 29.72 in 10.0 mi South 10.4 mph - N/A   Clear
9:52 PM 86.0 °F 86.8 °F 63.0 °F 46% 29.73 in 10.0 mi SSE 9.2 mph - N/A   Clear
10:52 PM 86.0 °F 86.8 °F 63.0 °F 46% 29.76 in 10.0 mi South 10.4 mph - N/A   Clear
11:52 PM 82.9 °F 84.6 °F 64.9 °F 54% 29.77 in 10.0 mi SSE 9.2 mph - N/A   Clear